Kingsville Naval Air Station Kingsville US
ICAO: KNQI
IATA: NQI
Category: Medium
Scheduled Services: No

Elevation: 50 ft
TransAlt. 18000 ft.

Airport Communications:
APP:119.9
ATIS:27.62
CLNC DEL:32.84
DEP:26.68
GND:35.24
BASE OPS:27.48
PMSV METRO:34.46
TWR:124.1

KNQI Zoom In..

Runways:

(A) RW 13L length 8000 ft width 200 ft
---- / hdg 127

(B) RW 13R length 8000 ft width 200 ft
ILS 110.90 / hdg 127

(C) RW 17L length 8000 ft width 200 ft
---- / hdg 172

(D) RW 17R length 8000 ft width 200 ft
---- / hdg 172

(E) RW 31L length 8000 ft width 200 ft
---- / hdg 307

(F) RW 31R length 8000 ft width 200 ft
---- / hdg 307

(G) RW 35L length 8000 ft width 200 ft
---- / hdg 352

(H) RW 35R length 8000 ft width 200 ft
---- / hdg 352

Location; KNQI
Day. 25 / Time. 10.25 Zulu
* Altimeter: 30.00
* Temperature: 18° c. 64.4°f.
* Wind from: 080° Speed 04 kn.
Dewpoint: 17° c.
Visibility: 4 Statute Miles.
Clouds: Scattered 400 ft.
Conditions: Mist.

KNQI 251025Z AUTO 08004KT 4SM BR SCT004 18/17 A3000 RMK AO2 T01780172


Wind From 080°
Speed 04 kn.

  YouTube Music Video
 
jpsmedia.com for Web Design  worldairports.se 2018   terms of use